MCA123 OPLA-UBBG

Flight info

Callsign MCA123
Flight time N/A
Altitude 36000
Route OPLA/36R LAXEB2F LAXEB A466 JHANG M875 LEBIB A466 DI N644 VUVEN LEMOD A909 NINOP ABDAN BODBA TUGTA RODAR M11 ERLEV LUSAL EDATA EDATA1F UBBG/30
Aircraft A319/M-SDE3GILORW/C

Departure

Time N/A
Airport Allama Iqbal International Airport (OPLA)

Arrival

Time 2026-04-22 15:37
Airport Ganja International Airport (UBBG)
Time Latitude Longitude Altitude Speed Heading
2026-04-22 12:30 32.30865 70.31639 35741 ft 414 kts 305°
2026-04-22 12:30 32.32664 70.29016 35741 ft 414 kts 305°
2026-04-22 12:31 32.36298 70.23718 35741 ft 414 kts 305°
2026-04-22 12:31 32.39901 70.18470 35741 ft 414 kts 305°
2026-04-22 12:32 32.43536 70.13170 35741 ft 414 kts 305°
2026-04-22 12:32 32.48943 70.05277 35741 ft 414 kts 305°
2026-04-22 12:33 32.52577 69.99965 35741 ft 414 kts 305°
2026-04-22 12:33 32.56178 69.94692 35741 ft 414 kts 305°
2026-04-22 12:34 32.59790 69.89398 35741 ft 414 kts 305°
2026-04-22 12:34 32.63389 69.84113 35741 ft 414 kts 305°
2026-04-22 12:35 32.66990 69.78818 35741 ft 414 kts 305°
2026-04-22 12:35 32.70604 69.73497 35741 ft 414 kts 305°
2026-04-22 12:36 32.74208 69.68182 35741 ft 414 kts 305°
2026-04-22 12:36 32.77803 69.62874 35741 ft 414 kts 305°
2026-04-22 12:37 32.81417 69.57529 35741 ft 414 kts 305°
2026-04-22 12:37 32.85011 69.52206 35741 ft 414 kts 305°
2026-04-22 12:38 32.88588 69.46900 35741 ft 414 kts 305°
2026-04-22 12:38 32.92186 69.41557 35740 ft 414 kts 305°
2026-04-22 12:39 32.97562 69.33551 35743 ft 414 kts 304°
2026-04-22 12:40 33.01135 69.28199 35741 ft 415 kts 305°
2026-04-22 12:40 33.04744 69.22796 35741 ft 416 kts 305°
2026-04-22 12:41 33.08323 69.17438 35740 ft 416 kts 305°
2026-04-22 12:41 33.11940 69.12035 35741 ft 418 kts 306°
2026-04-22 12:42 33.15577 69.06627 35741 ft 418 kts 306°
2026-04-22 12:42 33.19207 69.01201 35740 ft 420 kts 306°
2026-04-22 12:43 33.22818 68.95780 35741 ft 420 kts 306°
2026-04-22 12:43 33.26453 68.90311 35740 ft 421 kts 306°
2026-04-22 12:44 33.30095 68.84820 35739 ft 422 kts 305°
2026-04-22 12:44 33.33740 68.79316 35741 ft 422 kts 305°
2026-04-22 12:45 33.37366 68.73829 35741 ft 422 kts 305°
2026-04-22 12:45 33.40992 68.68336 35741 ft 422 kts 306°
2026-04-22 12:46 33.44624 68.62827 35740 ft 422 kts 305°
2026-04-22 12:46 33.48235 68.57342 35740 ft 422 kts 305°
2026-04-22 12:47 33.51870 68.51810 35741 ft 422 kts 305°
2026-04-22 12:47 33.55486 68.46295 35740 ft 422 kts 305°
2026-04-22 12:48 33.59092 68.40791 35741 ft 422 kts 305°
2026-04-22 12:48 33.62704 68.35270 35741 ft 422 kts 305°
2026-04-22 12:49 33.66320 68.29708 35742 ft 422 kts 305°
2026-04-22 12:49 33.69922 68.24165 35741 ft 422 kts 305°
2026-04-22 12:50 33.73522 68.18627 35741 ft 422 kts 305°
2026-04-22 12:50 33.77115 68.13099 35741 ft 421 kts 305°
2026-04-22 12:51 33.80702 68.07574 35742 ft 421 kts 305°
2026-04-22 12:51 33.84300 68.02022 35742 ft 422 kts 305°
2026-04-22 12:52 33.87901 67.96460 35740 ft 422 kts 305°
2026-04-22 12:52 33.91495 67.90897 35740 ft 422 kts 305°
2026-04-22 12:53 33.95086 67.85330 35740 ft 422 kts 305°
2026-04-22 12:53 33.98671 67.79765 35740 ft 422 kts 305°
2026-04-22 12:54 34.02242 67.74213 35740 ft 422 kts 305°
2026-04-22 12:54 34.05826 67.68632 35740 ft 422 kts 305°
2026-04-22 12:55 34.09404 67.63054 35745 ft 421 kts 305°
2026-04-22 12:55 34.13002 67.57466 35772 ft 421 kts 305°
2026-04-22 12:56 34.16579 67.51905 35810 ft 421 kts 305°
2026-04-22 12:56 34.20151 67.46323 35841 ft 421 kts 305°
2026-04-22 12:57 34.23734 67.40706 35864 ft 421 kts 305°
2026-04-22 12:57 34.27275 67.35140 35873 ft 421 kts 305°
2026-04-22 12:58 34.30835 67.29514 35877 ft 421 kts 304°
2026-04-22 12:58 34.34398 67.23878 35878 ft 421 kts 304°
2026-04-22 12:59 34.37922 67.18309 35877 ft 420 kts 304°
2026-04-22 12:59 34.41491 67.12663 35879 ft 421 kts 304°
2026-04-22 13:00 34.45047 67.07028 35879 ft 421 kts 304°
2026-04-22 13:00 34.48595 67.01399 35877 ft 422 kts 304°
2026-04-22 13:01 34.52144 66.95757 35878 ft 423 kts 304°
2026-04-22 13:01 34.55704 66.90118 35879 ft 423 kts 304°
2026-04-22 13:02 34.59313 66.84477 35878 ft 423 kts 304°
2026-04-22 13:02 34.62917 66.78841 35878 ft 423 kts 304°
2026-04-22 13:03 34.66520 66.73191 35879 ft 424 kts 304°
2026-04-22 13:03 34.70111 66.67547 35878 ft 423 kts 304°
2026-04-22 13:04 34.73711 66.61880 35880 ft 423 kts 304°
2026-04-22 13:04 34.77299 66.56224 35879 ft 423 kts 304°
2026-04-22 13:05 34.80870 66.50584 35877 ft 423 kts 304°
2026-04-22 13:05 34.84449 66.44923 35878 ft 423 kts 304°
2026-04-22 13:06 34.88034 66.39246 35879 ft 423 kts 304°
2026-04-22 13:06 34.91616 66.33559 35881 ft 423 kts 304°
2026-04-22 13:07 34.95179 66.27873 35842 ft 422 kts 304°
2026-04-22 13:07 34.98735 66.22197 35760 ft 422 kts 303°
2026-04-22 13:08 35.02271 66.16553 35733 ft 421 kts 303°
2026-04-22 13:08 35.05830 66.10864 35722 ft 421 kts 303°
2026-04-22 13:09 35.09367 66.05208 35719 ft 421 kts 303°
2026-04-22 13:09 35.12904 65.99573 35717 ft 420 kts 304°
2026-04-22 13:10 35.16455 65.93912 35714 ft 421 kts 304°
2026-04-22 13:10 35.19984 65.88257 35716 ft 421 kts 304°
2026-04-22 13:11 35.23524 65.82564 35715 ft 420 kts 303°
2026-04-22 13:11 35.27036 65.76902 35715 ft 420 kts 304°
2026-04-22 13:12 35.30559 65.71216 35716 ft 421 kts 303°
2026-04-22 13:12 35.34082 65.65515 35716 ft 421 kts 303°
2026-04-22 13:13 35.37606 65.59804 35715 ft 421 kts 303°
2026-04-22 13:13 35.41122 65.54096 35717 ft 420 kts 304°
2026-04-22 13:14 35.44620 65.48411 35715 ft 421 kts 303°
2026-04-22 13:14 35.48131 65.42693 35716 ft 420 kts 303°
2026-04-22 13:15 35.51640 65.36972 35715 ft 421 kts 303°
2026-04-22 13:15 35.55136 65.31244 35717 ft 420 kts 303°
2026-04-22 13:16 35.58625 65.25511 35716 ft 420 kts 303°
2026-04-22 13:16 35.62104 65.19799 35715 ft 420 kts 303°
2026-04-22 13:17 35.65609 65.14040 35715 ft 420 kts 303°
2026-04-22 13:17 35.69097 65.08302 35716 ft 420 kts 303°
2026-04-22 13:18 35.72572 65.02580 35715 ft 420 kts 303°
2026-04-22 13:18 35.76070 64.96809 35714 ft 420 kts 303°
2026-04-22 13:19 35.79552 64.91058 35715 ft 421 kts 302°
2026-04-22 13:19 35.83045 64.85274 35715 ft 422 kts 302°
2026-04-22 13:20 35.86544 64.79472 35715 ft 422 kts 302°
2026-04-22 13:20 35.90014 64.73701 35717 ft 422 kts 302°
2026-04-22 13:21 35.93518 64.67874 35714 ft 423 kts 302°
2026-04-22 13:21 35.96989 64.62083 35715 ft 423 kts 302°
2026-04-22 13:22 36.00487 64.56244 35723 ft 422 kts 302°
2026-04-22 13:22 36.03963 64.50433 35843 ft 422 kts 302°
2026-04-22 13:23 36.07449 64.44594 35914 ft 422 kts 302°
2026-04-22 13:23 36.10895 64.38819 35942 ft 421 kts 302°
2026-04-22 13:24 36.14381 64.32996 35952 ft 422 kts 302°
2026-04-22 13:24 36.17858 64.27190 35958 ft 422 kts 303°
2026-04-22 13:25 36.21453 64.21465 35959 ft 423 kts 303°
2026-04-22 13:25 36.25043 64.15756 35960 ft 423 kts 303°
2026-04-22 13:26 36.28646 64.10007 35961 ft 422 kts 303°
2026-04-22 13:26 36.32225 64.04277 35960 ft 423 kts 303°
2026-04-22 13:27 36.35810 63.98526 35961 ft 422 kts 303°
2026-04-22 13:27 36.39407 63.92742 35959 ft 422 kts 303°
2026-04-22 13:28 36.42964 63.87016 35960 ft 422 kts 303°
2026-04-22 13:28 36.46542 63.81245 35961 ft 422 kts 303°
2026-04-22 13:29 36.50114 63.75476 35959 ft 422 kts 303°
2026-04-22 13:29 36.53688 63.69692 35959 ft 422 kts 303°
2026-04-22 13:30 36.57244 63.63923 35960 ft 422 kts 303°
2026-04-22 13:30 36.60813 63.58128 35961 ft 423 kts 303°
2026-04-22 13:31 36.64386 63.52316 35960 ft 422 kts 303°
2026-04-22 13:31 36.67920 63.46555 35961 ft 422 kts 303°
2026-04-22 13:32 36.71471 63.40759 35959 ft 422 kts 303°
2026-04-22 13:32 36.75029 63.34938 35961 ft 422 kts 302°
2026-04-22 13:33 36.78562 63.29132 35961 ft 422 kts 302°
2026-04-22 13:33 36.82107 63.23299 35961 ft 422 kts 302°
2026-04-22 13:34 36.85643 63.17480 35960 ft 422 kts 302°
2026-04-22 13:34 36.89172 63.11665 35960 ft 422 kts 302°
2026-04-22 13:35 36.92704 63.05838 35962 ft 423 kts 302°
2026-04-22 13:35 36.96247 62.99983 35961 ft 424 kts 303°
2026-04-22 13:36 36.99800 62.94096 35959 ft 426 kts 303°
2026-04-22 13:36 37.03387 62.88146 35960 ft 428 kts 303°
2026-04-22 13:37 37.06944 62.82238 35960 ft 429 kts 304°
2026-04-22 13:37 37.10533 62.76270 35960 ft 430 kts 304°
2026-04-22 13:38 37.14159 62.70277 35961 ft 431 kts 304°
2026-04-22 13:38 37.19546 62.61323 35961 ft 430 kts 304°
2026-04-22 13:39 37.23146 62.55305 35961 ft 431 kts 304°
2026-04-22 13:39 37.26719 62.49313 35960 ft 431 kts 304°
2026-04-22 13:40 37.30297 62.43301 35960 ft 430 kts 304°
2026-04-22 13:40 37.33870 62.37286 35960 ft 430 kts 304°
2026-04-22 13:41 37.37433 62.31263 35961 ft 430 kts 303°
2026-04-22 13:41 37.40983 62.25243 35960 ft 430 kts 303°
2026-04-22 13:42 37.44555 62.19190 35961 ft 430 kts 303°
2026-04-22 13:42 37.48110 62.13160 35959 ft 430 kts 303°
2026-04-22 13:43 37.51676 62.07102 35959 ft 430 kts 303°
2026-04-22 13:43 37.55230 62.01054 35961 ft 430 kts 303°
2026-04-22 13:44 37.58773 61.95016 35960 ft 430 kts 303°
2026-04-22 13:44 37.62113 61.88809 35960 ft 429 kts 299°
2026-04-22 13:45 37.64959 61.82251 35961 ft 427 kts 295°
2026-04-22 13:45 37.67643 61.75553 35960 ft 427 kts 295°
2026-04-22 13:46 37.70303 61.68883 35960 ft 427 kts 295°
2026-04-22 13:46 37.72963 61.62203 35960 ft 427 kts 295°
2026-04-22 13:47 37.75618 61.55519 35960 ft 427 kts 295°
2026-04-22 13:47 37.78273 61.48822 35960 ft 427 kts 295°
2026-04-22 13:48 37.80929 61.42108 35961 ft 427 kts 295°
2026-04-22 13:48 37.83562 61.35442 35959 ft 427 kts 295°
2026-04-22 13:49 37.86216 61.28684 35961 ft 427 kts 294°
2026-04-22 13:49 37.88846 61.21971 35961 ft 427 kts 294°
2026-04-22 13:50 37.91464 61.15287 35960 ft 427 kts 294°
2026-04-22 13:50 37.94100 61.08550 35960 ft 428 kts 294°
2026-04-22 13:51 37.96737 61.01796 35958 ft 430 kts 295°
2026-04-22 13:51 37.99385 60.95000 35958 ft 432 kts 295°
2026-04-22 13:52 38.02038 60.88180 35961 ft 431 kts 295°
2026-04-22 13:52 38.04682 60.81370 35961 ft 432 kts 295°
2026-04-22 13:53 38.07331 60.74527 35960 ft 431 kts 295°
2026-04-22 13:53 38.09958 60.67725 35960 ft 432 kts 295°
2026-04-22 13:54 38.12618 60.60889 35961 ft 431 kts 295°
2026-04-22 13:54 38.15255 60.54088 35960 ft 432 kts 295°
2026-04-22 13:55 38.17888 60.47248 35961 ft 432 kts 295°
2026-04-22 13:55 38.20513 60.40399 35961 ft 432 kts 295°
2026-04-22 13:56 38.23109 60.33604 35963 ft 432 kts 294°
2026-04-22 13:56 38.25720 60.26731 35961 ft 431 kts 294°
2026-04-22 13:57 38.28325 60.19865 35960 ft 431 kts 294°
2026-04-22 13:57 38.30917 60.13025 35962 ft 431 kts 294°
2026-04-22 13:58 38.33519 60.06153 35960 ft 432 kts 294°
2026-04-22 13:58 38.36125 59.99251 35959 ft 431 kts 294°
2026-04-22 13:59 38.38715 59.92381 35960 ft 431 kts 294°
2026-04-22 13:59 38.41303 59.85497 35961 ft 431 kts 294°
2026-04-22 14:00 38.43883 59.78620 35959 ft 431 kts 294°
2026-04-22 14:00 38.46457 59.71743 35960 ft 431 kts 294°
2026-04-22 14:01 38.49023 59.64870 35961 ft 431 kts 294°
2026-04-22 14:01 38.51603 59.57947 35960 ft 431 kts 294°
2026-04-22 14:02 38.54162 59.51065 35960 ft 432 kts 294°
2026-04-22 14:02 38.56734 59.44125 35961 ft 431 kts 294°
2026-04-22 14:03 38.59278 59.37244 35961 ft 431 kts 294°
2026-04-22 14:03 38.61957 59.30379 35960 ft 431 kts 295°
2026-04-22 14:04 38.64692 59.23552 35959 ft 431 kts 295°
2026-04-22 14:04 38.67401 59.16755 35961 ft 431 kts 295°
2026-04-22 14:05 38.70115 59.09923 35960 ft 431 kts 295°
2026-04-22 14:06 38.74175 58.99659 35960 ft 431 kts 295°
2026-04-22 14:06 38.76879 58.92808 35959 ft 432 kts 295°
2026-04-22 14:07 38.79581 58.85943 35961 ft 433 kts 295°
2026-04-22 14:07 38.82276 58.79083 35959 ft 433 kts 295°
2026-04-22 14:08 38.84977 58.72194 35876 ft 434 kts 295°
2026-04-22 14:08 38.87645 58.65265 35812 ft 434 kts 293°
2026-04-22 14:09 38.89876 58.58094 35787 ft 431 kts 288°
2026-04-22 14:09 38.91787 58.50818 35780 ft 430 kts 288°
2026-04-22 14:10 38.93684 58.43508 35803 ft 428 kts 288°
2026-04-22 14:10 38.95549 58.36309 35841 ft 427 kts 288°
2026-04-22 14:11 38.97421 58.29045 35885 ft 425 kts 287°
2026-04-22 14:11 38.99268 58.21859 35915 ft 424 kts 287°
2026-04-22 14:12 39.01114 58.14673 35929 ft 423 kts 287°
2026-04-22 14:12 39.02944 58.07524 35933 ft 421 kts 286°
2026-04-22 14:13 39.04769 58.00374 35933 ft 420 kts 287°
2026-04-22 14:13 39.06588 57.93237 35933 ft 419 kts 286°
2026-04-22 14:14 39.08406 57.86079 35934 ft 420 kts 286°
2026-04-22 14:14 39.10208 57.78960 35934 ft 420 kts 287°
2026-04-22 14:15 39.12039 57.71817 35935 ft 419 kts 287°
2026-04-22 14:15 39.13852 57.64696 35934 ft 419 kts 287°
2026-04-22 14:16 39.15659 57.57540 35935 ft 419 kts 287°
2026-04-22 14:16 39.17450 57.50391 35935 ft 420 kts 287°
2026-04-22 14:17 39.19241 57.43227 35934 ft 420 kts 286°
2026-04-22 14:17 39.21021 57.36070 35934 ft 420 kts 286°
2026-04-22 14:18 39.22802 57.28872 35934 ft 419 kts 286°
2026-04-22 14:18 39.24569 57.21709 35933 ft 419 kts 286°
2026-04-22 14:19 39.26330 57.14557 35934 ft 419 kts 286°
2026-04-22 14:19 39.28090 57.07404 35934 ft 420 kts 285°
2026-04-22 14:20 39.30732 56.96621 35934 ft 420 kts 285°
2026-04-22 14:20 39.32494 56.89402 35933 ft 421 kts 285°
2026-04-22 14:21 39.35120 56.78596 35934 ft 421 kts 285°
2026-04-22 14:22 39.37735 56.67784 35934 ft 421 kts 285°
2026-04-22 14:23 39.40345 56.56956 35956 ft 421 kts 285°
2026-04-22 14:23 39.42083 56.49719 35990 ft 421 kts 285°
2026-04-22 14:24 39.43821 56.42448 36008 ft 421 kts 285°
2026-04-22 14:24 39.45546 56.35218 36012 ft 421 kts 285°
2026-04-22 14:25 39.47260 56.27979 36011 ft 421 kts 285°
2026-04-22 14:25 39.48969 56.20755 36003 ft 420 kts 285°
2026-04-22 14:26 39.50675 56.13528 35998 ft 421 kts 285°
2026-04-22 14:26 39.52387 56.06258 35993 ft 421 kts 285°
2026-04-22 14:27 39.54083 55.99040 35991 ft 421 kts 285°
2026-04-22 14:27 39.55761 55.91870 35990 ft 421 kts 285°
2026-04-22 14:28 39.57452 55.84627 35991 ft 421 kts 285°
2026-04-22 14:28 39.59130 55.77408 35990 ft 421 kts 285°
2026-04-22 14:29 39.60823 55.70119 35991 ft 421 kts 285°
2026-04-22 14:29 39.62494 55.62886 35990 ft 421 kts 285°
2026-04-22 14:30 39.64172 55.55608 35991 ft 421 kts 285°
2026-04-22 14:30 39.65849 55.48308 35991 ft 421 kts 285°
2026-04-22 14:31 39.67511 55.41047 35989 ft 421 kts 285°
2026-04-22 14:31 39.69173 55.33764 35992 ft 421 kts 284°
2026-04-22 14:32 39.70824 55.26478 35990 ft 421 kts 284°
2026-04-22 14:32 39.72471 55.19210 35989 ft 421 kts 284°
2026-04-22 14:33 39.74127 55.11877 35990 ft 421 kts 284°
2026-04-22 14:33 39.75772 55.04581 35989 ft 422 kts 284°
2026-04-22 14:34 39.77421 54.97230 35991 ft 423 kts 284°
2026-04-22 14:34 39.79064 54.89895 35990 ft 424 kts 284°
2026-04-22 14:35 39.80713 54.82499 35989 ft 424 kts 284°
2026-04-22 14:35 39.82348 54.75141 35989 ft 424 kts 284°
2026-04-22 14:36 39.83987 54.67755 35990 ft 423 kts 284°
2026-04-22 14:36 39.85608 54.60413 35991 ft 424 kts 284°
2026-04-22 14:37 39.87231 54.53054 35989 ft 425 kts 284°
2026-04-22 14:37 39.88850 54.45675 35988 ft 424 kts 284°
2026-04-22 14:38 39.90421 54.38266 35990 ft 424 kts 283°
2026-04-22 14:38 39.91963 54.30825 35988 ft 424 kts 283°
2026-04-22 14:39 39.93485 54.23466 35990 ft 424 kts 283°
2026-04-22 14:39 39.95018 54.16056 35990 ft 423 kts 283°
2026-04-22 14:40 39.97304 54.04974 35990 ft 423 kts 283°
2026-04-22 14:40 39.98830 53.97548 35990 ft 424 kts 283°
2026-04-22 14:41 40.00348 53.90141 35990 ft 424 kts 283°
2026-04-22 14:41 40.01853 53.82765 35989 ft 424 kts 283°
2026-04-22 14:42 40.03362 53.75344 35989 ft 424 kts 283°
2026-04-22 14:42 40.04868 53.67912 35989 ft 424 kts 283°
2026-04-22 14:43 40.06363 53.60508 35989 ft 424 kts 283°
2026-04-22 14:43 40.07862 53.53061 35990 ft 423 kts 283°
2026-04-22 14:44 40.09343 53.45681 35990 ft 424 kts 283°
2026-04-22 14:44 40.10837 53.38251 35990 ft 424 kts 283°
2026-04-22 14:45 40.12342 53.30819 35991 ft 424 kts 282°
2026-04-22 14:45 40.13826 53.23378 35990 ft 424 kts 282°
2026-04-22 14:46 40.15296 53.15954 35988 ft 423 kts 282°
2026-04-22 14:46 40.16763 53.08505 35991 ft 423 kts 282°
2026-04-22 14:47 40.18227 53.01051 35990 ft 423 kts 282°
2026-04-22 14:47 40.19681 52.93615 35990 ft 425 kts 282°
2026-04-22 14:48 40.21138 52.86128 35990 ft 426 kts 282°
2026-04-22 14:48 40.22596 52.78606 35991 ft 428 kts 282°
2026-04-22 14:49 40.24044 52.71106 35990 ft 427 kts 282°
2026-04-22 14:49 40.25497 52.63560 35990 ft 427 kts 282°
2026-04-22 14:50 40.26948 52.56008 35991 ft 428 kts 282°
2026-04-22 14:50 40.28384 52.48486 35991 ft 428 kts 282°
2026-04-22 14:51 40.29815 52.40958 35990 ft 428 kts 282°
2026-04-22 14:51 40.31244 52.33416 35991 ft 428 kts 282°
2026-04-22 14:52 40.32663 52.25873 35990 ft 428 kts 282°
2026-04-22 14:52 40.34088 52.18288 35990 ft 428 kts 282°
2026-04-22 14:53 40.35499 52.10750 35991 ft 428 kts 282°
2026-04-22 14:53 40.36912 52.03178 35991 ft 428 kts 281°
2026-04-22 14:54 40.38313 51.95632 35990 ft 427 kts 282°
2026-04-22 14:54 40.39717 51.88053 35990 ft 428 kts 282°
2026-04-22 14:55 40.41113 51.80487 35989 ft 428 kts 282°
2026-04-22 14:55 40.42500 51.72936 35990 ft 428 kts 282°
2026-04-22 14:56 40.43885 51.65373 35989 ft 427 kts 282°
2026-04-22 14:56 40.45262 51.57803 35990 ft 428 kts 282°
2026-04-22 14:57 40.46608 51.50232 35978 ft 427 kts 280°
2026-04-22 14:57 40.47633 51.42557 35952 ft 427 kts 278°
2026-04-22 14:58 40.48601 51.34873 35920 ft 427 kts 277°
2026-04-22 14:58 40.49565 51.27153 35896 ft 426 kts 277°
2026-04-22 14:59 40.50516 51.19511 35886 ft 427 kts 277°
2026-04-22 14:59 40.51470 51.11796 35882 ft 427 kts 277°
2026-04-22 15:00 40.52414 51.04134 35882 ft 426 kts 277°
2026-04-22 15:00 40.53348 50.96492 35880 ft 422 kts 278°
2026-04-22 15:01 40.54267 50.88950 35880 ft 419 kts 278°
2026-04-22 15:01 40.55181 50.81413 35880 ft 419 kts 278°
2026-04-22 15:02 40.56094 50.73842 35880 ft 418 kts 278°
2026-04-22 15:02 40.56998 50.66300 35880 ft 418 kts 278°
2026-04-22 15:03 40.57893 50.58801 35880 ft 418 kts 278°
2026-04-22 15:03 40.58789 50.51232 35881 ft 418 kts 278°
2026-04-22 15:04 40.59674 50.43720 35881 ft 418 kts 278°
2026-04-22 15:04 40.60560 50.36147 35878 ft 419 kts 278°
2026-04-22 15:05 40.61433 50.28605 35880 ft 418 kts 277°
2026-04-22 15:05 40.62308 50.21046 35880 ft 418 kts 277°
2026-04-22 15:06 40.63173 50.13513 35879 ft 419 kts 277°
2026-04-22 15:06 40.64037 50.05958 35881 ft 418 kts 277°
2026-04-22 15:07 40.64895 49.98397 35881 ft 418 kts 277°
2026-04-22 15:07 40.65753 49.90821 35880 ft 418 kts 277°
2026-04-22 15:08 40.66601 49.83273 35882 ft 418 kts 277°
2026-04-22 15:08 40.67446 49.75713 35878 ft 418 kts 277°
2026-04-22 15:09 40.68288 49.68106 35880 ft 419 kts 277°
2026-04-22 15:09 40.69120 49.60548 35880 ft 418 kts 277°
2026-04-22 15:10 40.69948 49.52999 35879 ft 419 kts 277°
2026-04-22 15:10 40.70781 49.45377 35881 ft 419 kts 277°
2026-04-22 15:11 40.71595 49.37832 35879 ft 418 kts 277°
2026-04-22 15:11 40.72280 49.30209 35881 ft 418 kts 273°
2026-04-22 15:12 40.72424 49.22591 35883 ft 416 kts 268°
2026-04-22 15:12 40.72009 49.14998 35880 ft 417 kts 264°
2026-04-22 15:13 40.71217 49.07480 35882 ft 416 kts 263°
2026-04-22 15:13 40.70397 48.99940 35882 ft 414 kts 263°
2026-04-22 15:14 40.69577 48.92500 35881 ft 413 kts 263°
2026-04-22 15:14 40.68750 48.85034 35879 ft 413 kts 263°
2026-04-22 15:15 40.67918 48.77537 35880 ft 413 kts 263°
2026-04-22 15:15 40.67079 48.70078 35881 ft 413 kts 263°
2026-04-22 15:16 40.66240 48.62643 35880 ft 412 kts 263°
2026-04-22 15:16 40.65392 48.55183 35882 ft 412 kts 263°
2026-04-22 15:17 40.64540 48.47709 35877 ft 412 kts 263°
2026-04-22 15:17 40.64115 48.44013 35438 ft 406 kts 263°
2026-04-22 15:17 40.63696 48.40396 34937 ft 398 kts 263°
2026-04-22 15:18 40.63289 48.36850 34436 ft 392 kts 263°
2026-04-22 15:18 40.62878 48.33320 33934 ft 386 kts 262°
2026-04-22 15:18 40.62480 48.29856 33431 ft 381 kts 262°
2026-04-22 15:18 40.62084 48.26443 32929 ft 376 kts 263°
2026-04-22 15:19 40.61696 48.23083 32429 ft 373 kts 262°
2026-04-22 15:19 40.61303 48.19726 31925 ft 369 kts 262°
2026-04-22 15:19 40.60918 48.16425 31425 ft 366 kts 262°
2026-04-22 15:19 40.60534 48.13162 30923 ft 362 kts 262°
2026-04-22 15:20 40.60147 48.09890 30421 ft 360 kts 262°
2026-04-22 15:20 40.59768 48.06685 29923 ft 357 kts 262°
2026-04-22 15:20 40.59386 48.03460 29418 ft 355 kts 261°
2026-04-22 15:20 40.59006 48.00261 28913 ft 352 kts 261°
2026-04-22 15:21 40.58691 47.97086 28411 ft 350 kts 264°
2026-04-22 15:21 40.58530 47.93926 27784 ft 352 kts 268°
2026-04-22 15:21 40.58529 47.90715 27085 ft 355 kts 271°
2026-04-22 15:21 40.58626 47.87478 26386 ft 357 kts 271°
2026-04-22 15:22 40.58732 47.84200 25762 ft 357 kts 271°
2026-04-22 15:22 40.58836 47.80964 25262 ft 354 kts 271°
2026-04-22 15:22 40.58939 47.77757 24763 ft 351 kts 271°
2026-04-22 15:22 40.59042 47.74553 24258 ft 348 kts 270°
2026-04-22 15:23 40.59141 47.71422 23763 ft 346 kts 270°
2026-04-22 15:23 40.59240 47.68257 23257 ft 343 kts 270°
2026-04-22 15:23 40.59338 47.65145 22755 ft 341 kts 270°
2026-04-22 15:23 40.59436 47.62031 22251 ft 339 kts 270°
2026-04-22 15:24 40.59530 47.58985 21754 ft 337 kts 270°
2026-04-22 15:24 40.59624 47.55909 21250 ft 335 kts 270°
2026-04-22 15:24 40.59716 47.52876 20750 ft 333 kts 270°
2026-04-22 15:24 40.59807 47.49836 20248 ft 331 kts 270°
2026-04-22 15:25 40.59895 47.46828 19748 ft 330 kts 270°
2026-04-22 15:25 40.59983 47.43832 19246 ft 328 kts 270°
2026-04-22 15:25 40.60071 47.40870 18749 ft 327 kts 270°
2026-04-22 15:25 40.60157 47.37893 18248 ft 325 kts 270°
2026-04-22 15:26 40.60242 47.34923 17745 ft 324 kts 269°
2026-04-22 15:26 40.60326 47.31972 17244 ft 322 kts 269°
2026-04-22 15:26 40.60408 47.29022 16741 ft 321 kts 269°
2026-04-22 15:26 40.60490 47.26113 16243 ft 320 kts 269°
2026-04-22 15:27 40.60570 47.23206 15744 ft 319 kts 269°
2026-04-22 15:27 40.60650 47.20289 15240 ft 318 kts 269°
2026-04-22 15:27 40.60767 47.17380 14737 ft 317 kts 272°
2026-04-22 15:27 40.60948 47.14531 14242 ft 316 kts 272°
2026-04-22 15:28 40.61141 47.11628 13736 ft 315 kts 272°
2026-04-22 15:28 40.61328 47.08794 13156 ft 317 kts 272°
2026-04-22 15:28 40.61521 47.05861 12395 ft 324 kts 272°
2026-04-22 15:28 40.61713 47.02901 11644 ft 329 kts 273°
2026-04-22 15:29 40.61892 47.00090 10941 ft 333 kts 273°
2026-04-22 15:29 40.62063 46.97416 10279 ft 336 kts 274°
2026-04-22 15:29 40.62259 46.94382 9535 ft 339 kts 274°
2026-04-22 15:30 40.62654 46.88261 8476 ft 329 kts 275°
2026-04-22 15:30 40.62845 46.85294 7978 ft 325 kts 275°
2026-04-22 15:30 40.63033 46.82354 7477 ft 321 kts 275°
2026-04-22 15:30 40.63216 46.79468 6981 ft 318 kts 275°
2026-04-22 15:31 40.63398 46.76590 6480 ft 315 kts 275°
2026-04-22 15:31 40.63576 46.73743 5981 ft 312 kts 275°
2026-04-22 15:31 40.63753 46.70916 5481 ft 310 kts 275°
2026-04-22 15:31 40.63929 46.68103 4979 ft 307 kts 275°
2026-04-22 15:32 40.64117 46.65291 4474 ft 305 kts 276°
2026-04-22 15:32 40.64309 46.62529 3975 ft 303 kts 276°
2026-04-22 15:32 40.64500 46.59773 3473 ft 302 kts 276°
2026-04-22 15:32 40.64689 46.57034 2973 ft 300 kts 276°
2026-04-22 15:33 40.64872 46.54350 2644 ft 292 kts 276°
2026-04-22 15:33 40.65049 46.51741 2586 ft 276 kts 276°
2026-04-22 15:33 40.65213 46.49297 2579 ft 259 kts 276°
2026-04-22 15:33 40.65382 46.47022 2574 ft 239 kts 282°
2026-04-22 15:34 40.65984 46.45132 2567 ft 210 kts 304°
2026-04-22 15:34 40.66837 46.43725 2564 ft 184 kts 312°
2026-04-22 15:34 40.67617 46.42555 2551 ft 157 kts 311°
2026-04-22 15:34 40.68293 46.41468 2569 ft 155 kts 309°
2026-04-22 15:35 40.68964 46.40339 2406 ft 155 kts 308°
2026-04-22 15:35 40.69621 46.39220 2208 ft 155 kts 308°
2026-04-22 15:35 40.70286 46.38089 1991 ft 155 kts 308°
2026-04-22 15:35 40.70946 46.36974 1809 ft 155 kts 308°
2026-04-22 15:36 40.71596 46.35873 1590 ft 154 kts 309°
2026-04-22 15:36 40.72266 46.34754 1387 ft 154 kts 307°
2026-04-22 15:36 40.72902 46.33678 1159 ft 143 kts 308°
2026-04-22 15:36 40.73481 46.32709 1085 ft 119 kts 309°
2026-04-22 15:37 40.73884 46.32028 1086 ft 70 kts 308°
2026-04-22 15:37 40.74121 46.31632 1088 ft 50 kts 306°
2026-04-22 15:37 40.74296 46.31339 1088 ft 37 kts 308°
2026-04-22 15:37 40.74455 46.31072 1084 ft 36 kts 307°
2026-04-22 15:38 40.74615 46.30802 1074 ft 18 kts 307°
2026-04-22 15:38 40.74591 46.30669 1083 ft 10 kts 218°
2026-04-22 15:38 40.74546 46.30621 1090 ft 8 kts 218°
2026-04-22 15:39 40.74503 46.30576 1091 ft 12 kts 218°
2026-04-22 15:39 40.74436 46.30507 1093 ft 12 kts 218°
2026-04-22 15:39 40.74368 46.30438 1095 ft 12 kts 217°
2026-04-22 15:39 40.74301 46.30369 1100 ft 14 kts 218°
2026-04-22 15:40 40.74221 46.30286 1106 ft 13 kts 218°
2026-04-22 15:40 40.74151 46.30215 1110 ft 11 kts 218°
2026-04-22 15:40 40.74098 46.30161 1115 ft 8 kts 217°
2026-04-22 15:40 40.74046 46.30178 1119 ft 7 kts 187°
2026-04-22 15:41 40.74022 46.30162 1121 ft 3 kts 168°
2026-04-22 15:41 40.73997 46.30183 1123 ft 5 kts 122°
2026-04-22 15:41 40.73988 46.30205 1123 ft 1 kts 126°
2026-04-22 15:41 40.73986 46.30207 1123 ft 0 kts 127°